This is the latest recevied weather packets stored in our database for station/object HK6REC-22. If no packets are shown the sender has not sent any weather packets the latest 10 day(s).
| Time | Temp. | Humidity | Pressure | Rain* | Wind** | Luminosity | Snow |
|---|---|---|---|---|---|---|---|
| 1778047510 | 19.44° C | 93% | 1014 hPa | 0 mm | - | - | - |
| 1778045709 | 19.44° C | 92% | 1015 hPa | 0 mm | - | - | - |
| 1778043907 | 20° C | 88% | 1016 hPa | 0 mm | - | - | - |
| 1778042106 | 20° C | 91% | 1015 hPa | 0 mm | - | - | - |
| 1778040305 | 20° C | 88% | 1016 hPa | 0 mm | - | - | - |
| 1778038504 | 20° C | 91% | 1015 hPa | 0 mm | - | - | - |
| 1778036703 | 20.56° C | 87% | 1016 hPa | 0 mm | - | - | - |
| 1778034902 | 21.11° C | 90% | 1015 hPa | 0 mm | - | - | - |
| 1778033101 | 21.67° C | 85% | 1015 hPa | 0 mm | - | - | - |
| 1778031300 | 21.67° C | 89% | 1014 hPa | 0 mm | - | - | - |
| 1778029498 | 22.22° C | 84% | 1014 hPa | 0 mm | - | - | - |
| 1778027697 | 22.22° C | 88% | 1013 hPa | 0 mm | - | - | - |
| 1778025896 | 22.22° C | 86% | 1012 hPa | 0 mm | - | - | - |
| 1778024095 | 22.22° C | 86% | 1011 hPa | 0 mm | - | - | - |
| 1778022294 | 22.22° C | 81% | 1011 hPa | 0 mm | - | - | - |
| 1778020493 | 22.22° C | 85% | 1010 hPa | 0 mm | - | - | - |
| 1778018692 | 22.78° C | 80% | 1010 hPa | 0 mm | - | - | - |
| 1778016891 | 22.78° C | 84% | 1009 hPa | 0 mm | - | - | - |
| 1778015090 | 23.33° C | 80% | 1009 hPa | 0 mm | - | - | - |
| 1778013289 | 28.33° C | 80% | 1009 hPa | 0 mm | - | - | - |
| 1778011488 | 28.89° C | 78% | 1010 hPa | 0 mm | - | - | - |
| 1778009687 | 28.89° C | 74% | 1009 hPa | 0 mm | - | - | - |
| 1778007886 | 28.89° C | 74% | 1010 hPa | 0 mm | - | - | - |
| 1778006085 | 28.89° C | 71% | 1010 hPa | 0 mm | - | - | - |
| 1778004284 | 28.89° C | 73% | 1011 hPa | 0 mm | - | - | - |
* Rain latest hour (hover to see other rain measurements)
** Current wind speed in m/s (hover to see current wind gust speed)